FFT2540 KATL-KCMH

Flight info

Callsign FFT2540
Flight time 1h 7m
Altitude 33000
Route PADGT2 SMTTH Q67 JONEN MCGNS SCRLT2
Aircraft A321/M-SDE3FGHIRWY/LB1

Departure

Time 2026-05-08 23:21
Airport Hartsfield Jackson Atlanta International Airport (KATL)

Arrival

Time 2026-05-09 00:28
Airport John Glenn Columbus International Airport (KCMH)
Time Latitude Longitude Altitude Speed Heading
2026-05-08 22:37 33.64350 -84.44193 1006 ft 0 kts 255°
2026-05-08 23:05 33.64354 -84.44176 1006 ft 3 kts 267°
2026-05-08 23:05 33.64352 -84.44152 1006 ft 3 kts 295°
2026-05-08 23:06 33.64342 -84.44132 1006 ft 3 kts 318°
2026-05-08 23:06 33.64326 -84.44119 1006 ft 3 kts 348°
2026-05-08 23:06 33.64310 -84.44117 1006 ft 0 kts
2026-05-08 23:09 33.64327 -84.44117 1006 ft 7 kts
2026-05-08 23:10 33.64389 -84.44110 1006 ft 9 kts 22°
2026-05-08 23:10 33.64424 -84.44011 1006 ft 18 kts 81°
2026-05-08 23:10 33.64444 -84.43850 1006 ft 19 kts 82°
2026-05-08 23:10 33.64458 -84.43696 1006 ft 18 kts 86°
2026-05-08 23:11 33.64459 -84.43548 1006 ft 18 kts 90°
2026-05-08 23:11 33.64460 -84.43384 1006 ft 21 kts 90°
2026-05-08 23:11 33.64460 -84.43211 1007 ft 20 kts 90°
2026-05-08 23:11 33.64459 -84.43048 1007 ft 19 kts 90°
2026-05-08 23:12 33.64460 -84.42887 1006 ft 22 kts 90°
2026-05-08 23:12 33.64467 -84.42711 1006 ft 21 kts 85°
2026-05-08 23:12 33.64469 -84.42566 1006 ft 13 kts 90°
2026-05-08 23:12 33.64469 -84.42462 1006 ft 12 kts 90°
2026-05-08 23:13 33.64469 -84.42366 1006 ft 11 kts 90°
2026-05-08 23:13 33.64469 -84.42322 1006 ft 2 kts 90°
2026-05-08 23:13 33.64469 -84.42318 1006 ft 0 kts 90°
2026-05-08 23:14 33.64469 -84.42314 1006 ft 3 kts 90°
2026-05-08 23:14 33.64485 -84.42249 1006 ft 10 kts 43°
2026-05-08 23:14 33.64547 -84.42238 1006 ft 9 kts
2026-05-08 23:14 33.64571 -84.42238 1005 ft 0 kts 360°
2026-05-08 23:16 33.64586 -84.42238 1005 ft 7 kts 360°
2026-05-08 23:16 33.64674 -84.42238 1004 ft 15 kts 360°
2026-05-08 23:16 33.64766 -84.42228 1006 ft 13 kts 27°
2026-05-08 23:16 33.64789 -84.42109 1006 ft 19 kts 89°
2026-05-08 23:17 33.64789 -84.41935 1006 ft 21 kts 90°
2026-05-08 23:17 33.64789 -84.41741 1007 ft 23 kts 90°
2026-05-08 23:17 33.64789 -84.41550 1007 ft 23 kts 90°
2026-05-08 23:17 33.64789 -84.41356 1007 ft 24 kts 90°
2026-05-08 23:18 33.64842 -84.41177 1007 ft 22 kts 78°
2026-05-08 23:18 33.64845 -84.40993 1006 ft 24 kts 90°
2026-05-08 23:18 33.64845 -84.40772 1006 ft 26 kts 90°
2026-05-08 23:18 33.64835 -84.40601 1006 ft 16 kts 117°
2026-05-08 23:19 33.64737 -84.40568 1005 ft 14 kts 180°
2026-05-08 23:19 33.64683 -84.40594 1004 ft 7 kts 247°
2026-05-08 23:19 33.64681 -84.40625 1004 ft 0 kts 269°
2026-05-08 23:20 33.64681 -84.40635 1004 ft 6 kts 269°
2026-05-08 23:20 33.64680 -84.40963 1007 ft 75 kts 270°
2026-05-08 23:20 33.64680 -84.41842 1008 ft 133 kts 270°
2026-05-08 23:21 33.64680 -84.43114 1076 ft 169 kts 269°
2026-05-08 23:21 33.64680 -84.44505 1754 ft 166 kts 268°
2026-05-08 23:21 33.64725 -84.45883 2461 ft 166 kts 282°
2026-05-08 23:21 33.65149 -84.47186 2982 ft 173 kts 294°
2026-05-08 23:22 33.65755 -84.48512 3130 ft 193 kts 311°
2026-05-08 23:22 33.66986 -84.49308 3257 ft 218 kts 351°
2026-05-08 23:22 33.68585 -84.49222 3404 ft 243 kts
2026-05-08 23:22 33.70343 -84.48972 3801 ft 262 kts
2026-05-08 23:23 33.72175 -84.48682 4497 ft 268 kts
2026-05-08 23:23 33.74041 -84.48384 5238 ft 272 kts
2026-05-08 23:23 33.75936 -84.48088 5982 ft 277 kts
2026-05-08 23:23 33.77863 -84.47796 6674 ft 281 kts
2026-05-08 23:24 33.79816 -84.47504 7376 ft 285 kts
2026-05-08 23:24 33.81123 -84.47308 7854 ft 286 kts
2026-05-08 23:24 33.83113 -84.47013 8561 ft 290 kts 360°
2026-05-08 23:24 33.85122 -84.46719 9258 ft 292 kts 359°
2026-05-08 23:25 33.87151 -84.46423 9980 ft 295 kts 359°
2026-05-08 23:25 33.89221 -84.46123 10395 ft 308 kts 359°
2026-05-08 23:25 33.91412 -84.45813 10646 ft 326 kts 359°
2026-05-08 23:25 33.93719 -84.45485 10895 ft 342 kts 359°
2026-05-08 23:26 33.96117 -84.45134 11399 ft 350 kts 359°
2026-05-08 23:26 33.98542 -84.44769 12023 ft 353 kts 359°
2026-05-08 23:26 34.00992 -84.44396 12675 ft 356 kts 358°
2026-05-08 23:26 34.03460 -84.44020 13361 ft 359 kts 358°
2026-05-08 23:27 34.05945 -84.43644 13994 ft 362 kts 358°
2026-05-08 23:27 34.08454 -84.43269 14557 ft 365 kts 357°
2026-05-08 23:27 34.10987 -84.42893 15098 ft 369 kts 357°
2026-05-08 23:27 34.13553 -84.42518 15638 ft 373 kts 357°
2026-05-08 23:28 34.16143 -84.42139 16172 ft 377 kts 356°
2026-05-08 23:28 34.18761 -84.41753 16698 ft 381 kts 356°
2026-05-08 23:28 34.21406 -84.41361 17218 ft 385 kts 356°
2026-05-08 23:28 34.24081 -84.40964 17739 ft 389 kts 356°
2026-05-08 23:29 34.26743 -84.40567 18246 ft 393 kts 356°
2026-05-08 23:29 34.29465 -84.40160 18702 ft 397 kts 356°
2026-05-08 23:29 34.32218 -84.39656 19144 ft 402 kts 359°
2026-05-08 23:29 34.34987 -84.39031 19596 ft 407 kts
2026-05-08 23:30 34.37772 -84.38330 20039 ft 411 kts
2026-05-08 23:30 34.40578 -84.37595 20475 ft 414 kts
2026-05-08 23:30 34.43401 -84.36858 20892 ft 416 kts
2026-05-08 23:30 34.46245 -84.36135 21330 ft 418 kts
2026-05-08 23:31 34.49107 -84.35428 21760 ft 421 kts
2026-05-08 23:31 34.51985 -84.34732 22212 ft 423 kts
2026-05-08 23:31 34.54883 -84.34039 22662 ft 425 kts 359°
2026-05-08 23:31 34.57799 -84.33345 23031 ft 429 kts 360°
2026-05-08 23:32 34.60734 -84.32645 23431 ft 431 kts
2026-05-08 23:32 34.63684 -84.31934 23795 ft 434 kts
2026-05-08 23:32 34.66654 -84.31214 24129 ft 436 kts 360°
2026-05-08 23:32 34.69641 -84.30487 24460 ft 439 kts 360°
2026-05-08 23:33 34.72649 -84.29754 24780 ft 442 kts 360°
2026-05-08 23:33 34.75674 -84.29021 25097 ft 445 kts 359°
2026-05-08 23:33 34.78714 -84.28284 25394 ft 447 kts 359°
2026-05-08 23:33 34.81776 -84.27539 25696 ft 450 kts 359°
2026-05-08 23:34 34.84854 -84.26790 26032 ft 452 kts 359°
2026-05-08 23:34 34.87948 -84.26039 26352 ft 455 kts 359°
2026-05-08 23:34 34.91058 -84.25282 26661 ft 457 kts 359°
2026-05-08 23:34 34.94184 -84.24518 26970 ft 460 kts 359°
2026-05-08 23:35 34.97327 -84.23749 27282 ft 462 kts 358°
2026-05-08 23:35 35.00483 -84.22979 27573 ft 464 kts 358°
2026-05-08 23:35 35.03660 -84.22206 27863 ft 467 kts 358°
2026-05-08 23:35 35.06855 -84.21429 28137 ft 469 kts 358°
2026-05-08 23:36 35.10065 -84.20643 28414 ft 472 kts 358°
2026-05-08 23:36 35.13290 -84.19851 28694 ft 473 kts 358°
2026-05-08 23:36 35.16524 -84.19053 28955 ft 476 kts 357°
2026-05-08 23:36 35.19777 -84.18251 29179 ft 478 kts 357°
2026-05-08 23:37 35.23006 -84.17456 29424 ft 481 kts 357°
2026-05-08 23:37 35.26294 -84.16647 29663 ft 483 kts 356°
2026-05-08 23:37 35.29598 -84.15834 29927 ft 486 kts 356°
2026-05-08 23:37 35.32918 -84.15017 30188 ft 488 kts 356°
2026-05-08 23:38 35.36253 -84.14195 30392 ft 490 kts 356°
2026-05-08 23:38 35.39600 -84.13368 30666 ft 491 kts 356°
2026-05-08 23:38 35.42888 -84.12554 30962 ft 491 kts 356°
2026-05-08 23:38 35.46240 -84.11727 31250 ft 491 kts 356°
2026-05-08 23:39 35.49591 -84.10900 31553 ft 492 kts 356°
2026-05-08 23:39 35.52948 -84.10070 31855 ft 492 kts 356°
2026-05-08 23:39 35.56306 -84.09236 32141 ft 493 kts 356°
2026-05-08 23:39 35.59667 -84.08399 32429 ft 493 kts 356°
2026-05-08 23:40 35.63028 -84.07558 32734 ft 493 kts 356°
2026-05-08 23:40 35.66396 -84.06716 32950 ft 494 kts 355°
2026-05-08 23:40 35.73020 -84.05044 32991 ft 481 kts 355°
2026-05-08 23:41 35.79557 -84.03418 32990 ft 478 kts 355°
2026-05-08 23:41 35.86073 -84.01813 32995 ft 477 kts 355°
2026-05-08 23:42 35.92572 -83.99481 33009 ft 508 kts 11°
2026-05-08 23:42 35.95720 -83.97360 33014 ft 519 kts 17°
2026-05-08 23:42 35.98848 -83.95110 33003 ft 520 kts 17°
2026-05-08 23:43 36.05092 -83.90615 33021 ft 520 kts 17°
2026-05-08 23:43 36.11302 -83.86172 33026 ft 519 kts 17°
2026-05-08 23:44 36.17570 -83.81699 32984 ft 520 kts 17°
2026-05-08 23:44 36.23844 -83.77205 32978 ft 522 kts 17°
2026-05-08 23:45 36.30125 -83.72685 32986 ft 522 kts 17°
2026-05-08 23:45 36.36405 -83.68161 32999 ft 522 kts 17°
2026-05-08 23:46 36.42689 -83.63633 33000 ft 522 kts 17°
2026-05-08 23:46 36.48971 -83.59092 32995 ft 522 kts 17°
2026-05-08 23:47 36.55243 -83.54546 32990 ft 521 kts 17°
2026-05-08 23:47 36.61508 -83.49994 32992 ft 522 kts 17°
2026-05-08 23:48 36.67775 -83.45438 32990 ft 521 kts 17°
2026-05-08 23:48 36.74032 -83.40887 32983 ft 520 kts 17°
2026-05-08 23:49 36.80286 -83.36324 32990 ft 521 kts 17°
2026-05-08 23:49 36.86535 -83.31736 32987 ft 521 kts 18°
2026-05-08 23:50 36.92773 -83.27145 32986 ft 520 kts 18°
2026-05-08 23:50 36.99007 -83.22558 32990 ft 519 kts 18°
2026-05-08 23:51 37.05228 -83.17959 32998 ft 519 kts 18°
2026-05-08 23:51 37.11442 -83.13365 33003 ft 518 kts 18°
2026-05-08 23:52 37.17643 -83.08774 33000 ft 517 kts 18°
2026-05-08 23:52 37.23835 -83.04182 33006 ft 517 kts 18°
2026-05-08 23:53 37.30055 -82.99754 33002 ft 511 kts 15°
2026-05-08 23:53 37.36299 -82.95719 32994 ft 507 kts 13°
2026-05-08 23:54 37.42593 -82.91731 32993 ft 507 kts 14°
2026-05-08 23:55 37.51977 -82.85580 32989 ft 507 kts 15°
2026-05-08 23:55 37.58209 -82.81428 32994 ft 506 kts 15°
2026-05-08 23:56 37.64433 -82.77302 33005 ft 505 kts 15°
2026-05-08 23:56 37.70648 -82.73203 33009 ft 504 kts 15°
2026-05-08 23:57 37.76852 -82.69097 33006 ft 503 kts 15°
2026-05-08 23:57 37.83043 -82.64975 33000 ft 503 kts 15°
2026-05-08 23:58 37.89227 -82.60853 32994 ft 502 kts 15°
2026-05-08 23:58 37.95398 -82.56742 32984 ft 501 kts 15°
2026-05-08 23:59 38.01495 -82.52567 32971 ft 504 kts 18°
2026-05-08 23:59 38.07527 -82.47954 32964 ft 508 kts 20°
2026-05-09 00:00 38.13503 -82.43176 32966 ft 507 kts 20°
2026-05-09 00:00 38.19490 -82.38467 32960 ft 505 kts 19°
2026-05-09 00:01 38.25496 -82.33868 32943 ft 504 kts 19°
2026-05-09 00:01 38.31493 -82.29273 32941 ft 503 kts 19°
2026-05-09 00:02 38.37459 -82.24644 32760 ft 502 kts 20°
2026-05-09 00:02 38.40434 -82.22320 32329 ft 500 kts 20°
2026-05-09 00:02 38.43396 -82.20041 31868 ft 491 kts 17°
2026-05-09 00:02 38.46447 -82.18313 31424 ft 469 kts
2026-05-09 00:03 38.49527 -82.17303 30988 ft 447 kts 356°
2026-05-09 00:03 38.52552 -82.16947 30552 ft 427 kts 348°
2026-05-09 00:03 38.55451 -82.17158 30123 ft 409 kts 340°
2026-05-09 00:03 38.58245 -82.17682 29646 ft 404 kts 340°
2026-05-09 00:04 38.61015 -82.18202 29142 ft 401 kts 340°
2026-05-09 00:04 38.63762 -82.18716 28649 ft 397 kts 340°
2026-05-09 00:04 38.66498 -82.19193 28135 ft 399 kts 345°
2026-05-09 00:04 38.69321 -82.18928 27632 ft 419 kts
2026-05-09 00:05 38.72072 -82.17491 27132 ft 438 kts 23°
2026-05-09 00:05 38.74458 -82.14984 26664 ft 451 kts 40°
2026-05-09 00:05 38.76547 -82.11984 26187 ft 451 kts 42°
2026-05-09 00:05 38.78599 -82.08964 25716 ft 447 kts 42°
2026-05-09 00:06 38.80638 -82.05970 25257 ft 444 kts 42°
2026-05-09 00:06 38.82660 -82.03005 24806 ft 440 kts 42°
2026-05-09 00:06 38.84673 -82.00063 24361 ft 437 kts 42°
2026-05-09 00:06 38.86673 -81.97151 23921 ft 433 kts 42°
2026-05-09 00:07 38.88663 -81.94267 23481 ft 430 kts 42°
2026-05-09 00:07 38.90641 -81.91412 22965 ft 426 kts 42°
2026-05-09 00:07 38.92607 -81.88585 22459 ft 423 kts 42°
2026-05-09 00:07 38.94536 -81.85824 21961 ft 420 kts 42°
2026-05-09 00:08 38.96627 -81.83282 21482 ft 406 kts 28°
2026-05-09 00:08 38.99042 -81.81586 21073 ft 387 kts 12°
2026-05-09 00:08 39.01589 -81.80807 20671 ft 368 kts 356°
2026-05-09 00:08 39.04087 -81.80893 20276 ft 352 kts 342°
2026-05-09 00:09 39.06393 -81.81731 19889 ft 339 kts 329°
2026-05-09 00:09 39.08412 -81.83185 19498 ft 328 kts 317°
2026-05-09 00:09 39.10104 -81.85104 19117 ft 323 kts 310°
2026-05-09 00:09 39.11718 -81.87108 18733 ft 322 kts 311°
2026-05-09 00:10 39.13337 -81.89102 18360 ft 321 kts 311°
2026-05-09 00:10 39.14949 -81.91082 17957 ft 320 kts 311°
2026-05-09 00:10 39.16552 -81.93053 17532 ft 318 kts 311°
2026-05-09 00:10 39.18142 -81.95016 17110 ft 315 kts 311°
2026-05-09 00:11 39.19718 -81.96968 16684 ft 313 kts 311°
2026-05-09 00:11 39.21284 -81.98909 16283 ft 311 kts 311°
2026-05-09 00:11 39.22839 -82.00834 15882 ft 309 kts 311°
2026-05-09 00:11 39.24380 -82.02745 15482 ft 307 kts 311°
2026-05-09 00:12 39.25911 -82.04646 15098 ft 304 kts 311°
2026-05-09 00:12 39.27430 -82.06534 14782 ft 302 kts 311°
2026-05-09 00:12 39.28942 -82.08412 14469 ft 301 kts 311°
2026-05-09 00:12 39.30447 -82.10283 14204 ft 300 kts 311°
2026-05-09 00:13 39.31943 -82.12143 13876 ft 298 kts 311°
2026-05-09 00:13 39.33430 -82.13992 13518 ft 296 kts 310°
2026-05-09 00:13 39.34915 -82.15841 13140 ft 296 kts 311°
2026-05-09 00:13 39.36398 -82.17689 12779 ft 296 kts 311°
2026-05-09 00:14 39.37882 -82.19539 12464 ft 297 kts 311°
2026-05-09 00:14 39.39367 -82.21393 12158 ft 297 kts 311°
2026-05-09 00:14 39.40855 -82.23252 11855 ft 297 kts 311°
2026-05-09 00:14 39.42342 -82.25112 11548 ft 298 kts 311°
2026-05-09 00:15 39.43833 -82.26978 11246 ft 299 kts 311°
2026-05-09 00:15 39.44821 -82.28217 11050 ft 299 kts 311°
2026-05-09 00:15 39.46316 -82.30092 10735 ft 300 kts 311°
2026-05-09 00:15 39.47809 -82.31966 10483 ft 296 kts 311°
2026-05-09 00:16 39.49264 -82.33782 10359 ft 285 kts 311°
2026-05-09 00:16 39.50725 -82.35484 10133 ft 283 kts 318°
2026-05-09 00:16 39.52312 -82.36983 9863 ft 282 kts 319°
2026-05-09 00:16 39.53901 -82.38482 9545 ft 282 kts 319°
2026-05-09 00:17 39.55484 -82.39977 9219 ft 281 kts 319°
2026-05-09 00:17 39.57064 -82.41468 8907 ft 280 kts 319°
2026-05-09 00:17 39.58639 -82.42956 8593 ft 279 kts 319°
2026-05-09 00:17 39.60206 -82.44435 8288 ft 278 kts 319°
2026-05-09 00:18 39.61764 -82.45910 7983 ft 277 kts 319°
2026-05-09 00:18 39.63317 -82.47380 7713 ft 276 kts 319°
2026-05-09 00:18 39.64863 -82.48845 7479 ft 275 kts 319°
2026-05-09 00:18 39.66402 -82.50306 7227 ft 274 kts 319°
2026-05-09 00:19 39.67939 -82.51765 6981 ft 273 kts 319°
2026-05-09 00:19 39.69469 -82.53216 6752 ft 272 kts 319°
2026-05-09 00:19 39.70991 -82.54660 6519 ft 271 kts 318°
2026-05-09 00:19 39.72519 -82.56084 6316 ft 271 kts 320°
2026-05-09 00:20 39.74073 -82.57464 6083 ft 271 kts 321°
2026-05-09 00:20 39.75639 -82.58826 5858 ft 270 kts 321°
2026-05-09 00:20 39.77235 -82.60043 5617 ft 274 kts 335°
2026-05-09 00:20 39.79143 -82.60359 5394 ft 284 kts
2026-05-09 00:21 39.81085 -82.59811 5171 ft 287 kts 11°
2026-05-09 00:21 39.82999 -82.59112 5025 ft 283 kts 12°
2026-05-09 00:21 39.84838 -82.58424 5007 ft 267 kts 12°
2026-05-09 00:21 39.86579 -82.57773 5013 ft 256 kts
2026-05-09 00:22 39.88322 -82.57596 5016 ft 250 kts 354°
2026-05-09 00:22 39.90045 -82.57645 5023 ft 240 kts 353°
2026-05-09 00:22 39.91687 -82.57703 4809 ft 234 kts 352°
2026-05-09 00:22 39.93232 -82.58055 4547 ft 218 kts 327°
2026-05-09 00:23 39.94358 -82.59261 4293 ft 207 kts 306°
2026-05-09 00:23 39.95250 -82.60663 4068 ft 195 kts 303°
2026-05-09 00:23 39.96071 -82.62024 3820 ft 190 kts 302°
2026-05-09 00:23 39.96879 -82.63376 3556 ft 189 kts 302°
2026-05-09 00:24 39.97637 -82.64763 3306 ft 185 kts 292°
2026-05-09 00:24 39.97945 -82.66343 3075 ft 175 kts 271°
2026-05-09 00:24 39.98033 -82.67878 3003 ft 167 kts 272°
2026-05-09 00:24 39.98122 -82.69378 3003 ft 165 kts 272°
2026-05-09 00:25 39.98209 -82.70862 3009 ft 163 kts 272°
2026-05-09 00:25 39.98295 -82.72336 2985 ft 163 kts 272°
2026-05-09 00:25 39.98381 -82.73809 2839 ft 163 kts 272°
2026-05-09 00:25 39.98467 -82.75283 2648 ft 164 kts 272°
2026-05-09 00:26 39.98553 -82.76765 2440 ft 164 kts 272°
2026-05-09 00:26 39.98638 -82.78216 2243 ft 154 kts 273°
2026-05-09 00:26 39.98716 -82.79561 2029 ft 145 kts 273°
2026-05-09 00:26 39.98789 -82.80849 1835 ft 141 kts 272°
2026-05-09 00:27 39.98862 -82.82117 1643 ft 140 kts 273°
2026-05-09 00:27 39.98934 -82.83386 1451 ft 141 kts 273°
2026-05-09 00:27 39.99008 -82.84673 1275 ft 142 kts 273°
2026-05-09 00:27 39.99082 -82.85962 1082 ft 142 kts 273°
2026-05-09 00:28 39.99155 -82.87244 890 ft 141 kts 274°
2026-05-09 00:28 39.99228 -82.88475 825 ft 121 kts 274°
2026-05-09 00:28 39.99275 -82.89306 824 ft 67 kts 274°
2026-05-09 00:28 39.99303 -82.89808 824 ft 38 kts 275°
2026-05-09 00:29 39.99361 -82.90073 825 ft 26 kts 297°
2026-05-09 00:29 39.99437 -82.90220 824 ft 11 kts 310°
2026-05-09 00:29 39.99450 -82.90240 822 ft 0 kts 310°
2026-05-09 00:30 39.99458 -82.90253 824 ft 3 kts 308°
2026-05-09 00:30 39.99470 -82.90274 824 ft 4 kts 307°
2026-05-09 00:30 39.99507 -82.90315 825 ft 7 kts 330°
2026-05-09 00:30 39.99548 -82.90326 825 ft 4 kts 355°